Rome Ciampino, Italy

5:28 AM CEST on October 21, 2017 (GMT +0200)
Ciampino

Weather History for LIRA - November, 2012

Change the Weather History Date:

Friday, November 16, 2012

  Actual Average Record
Temperature  
Mean Temperature 54 °F -  
Max Temperature 64 °F 58 °F 71 °F (2000)
Min Temperature 44 °F 41 °F 37 °F (2011)
Degree Days  
Heating Degree Days 11    
Growing Degree Days 4 (Base 50)    
Moisture  
Dew Point 47 °F    
Average Humidity 81    
Maximum Humidity 100    
Minimum Humidity 56    
Precipitation  
Precipitation 0.00 in 0.16 in - ()
Sea Level Pressure  
Sea Level Pressure 30.02 in    
Wind  
Wind Speed 3 mph ()    
Max Wind Speed 6 mph    
Max Gust Speed -    
Visibility 6.2 miles    
Events      
Averages and records for this station are not official NWS values.
T = Trace of Precipitation, MM = Missing Value Source: Averaged Metar Reports

Daily Weather History Graph

Daily Weather History Graph

Search for Another Location

Airport or City:

Trip Planner

Search our weather history database for the weather conditions in past years. The results will help you decide how hot, cold, wet, or windy it might be!

Date:

Astronomy

Nov. 16, 2012 Rise Set
Actual Time 7:00 AM CET 4:48 PM CET
Civil Twilight 6:30 AM CET 5:18 PM CET
Nautical Twilight 5:56 AM CET 5:51 PM CET
Astronomical Twilight 5:23 AM CET 6:24 PM CET
Moon 9:40 AM CET (11/16) 7:27 PM CET (11/16)
Length of Visible Light 10h 47m
Length of Day
9h 47m
Waxing Crescent, 9% of the Moon is Illuminated
Nov 16
Waxing Crescent
Nov 20
First Quarter
Nov 28
Full
Dec 6
Last Quarter
Dec 13
New

Hourly Weather History & Observations

Time (CET) Temp. Windchill Dew Point Humidity Pressure Visibility Wind Dir Wind Speed Gust Speed Precip Events Conditions
12:15 AM 51.8 °F - 48.2 °F 88% 30.04 in 6.2 mi NNE 4.6 mph - N/A   Mostly Cloudy
12:45 AM 51.8 °F - 48.2 °F 88% 30.04 in 6.2 mi NNE 4.6 mph - N/A   Scattered Clouds
1:15 AM 51.8 °F - 46.4 °F 82% 30.04 in 6.2 mi NNE 4.6 mph - N/A   Partly Cloudy
1:45 AM 50.0 °F - 46.4 °F 87% 30.01 in 6.2 mi North 2.3 mph - N/A   Partly Cloudy
2:15 AM 48.2 °F - 44.6 °F 87% 30.01 in - North 2.3 mph - N/A   Clear
2:45 AM 48.2 °F - 44.6 °F 87% 30.01 in 6.2 mi North 2.3 mph - N/A   Partly Cloudy
3:15 AM 48.2 °F - 44.6 °F 87% 30.01 in 6.2 mi NNE 3.5 mph - N/A   Partly Cloudy
3:45 AM 48.2 °F - 44.6 °F 87% 30.01 in 6.2 mi NNE 3.5 mph - N/A   Partly Cloudy
4:15 AM 46.4 °F 44.3 °F 44.6 °F 93% 30.01 in 6.2 mi NNE 4.6 mph - N/A   Partly Cloudy
4:45 AM 46.4 °F 44.3 °F 42.8 °F 87% 30.01 in 6.2 mi NE 4.6 mph - N/A   Partly Cloudy
5:15 AM 46.4 °F 44.3 °F 42.8 °F 87% 30.01 in 6.2 mi NNE 4.6 mph - N/A   Partly Cloudy
5:45 AM 46.4 °F 45.2 °F 42.8 °F 87% 30.01 in 6.2 mi NNE 3.5 mph - N/A   Partly Cloudy
6:15 AM 46.4 °F 43.5 °F 42.8 °F 87% 30.01 in 6.2 mi NE 5.8 mph - N/A   Scattered Clouds
6:45 AM 44.6 °F 42.2 °F 41.0 °F 87% 30.01 in 6.2 mi NE 4.6 mph - N/A   Scattered Clouds
7:15 AM 44.6 °F 41.4 °F 41.0 °F 87% 30.01 in 6.2 mi NE 5.8 mph - N/A   Partly Cloudy
7:45 AM 44.6 °F 41.4 °F 41.0 °F 87% 30.01 in 6.2 mi NE 5.8 mph - N/A   Partly Cloudy
8:15 AM 46.4 °F 44.3 °F 42.8 °F 87% 30.01 in 6.2 mi NE 4.6 mph - N/A   Partly Cloudy
8:45 AM 48.2 °F - 44.6 °F 87% 30.04 in 6.2 mi NNE 3.5 mph - N/A   Partly Cloudy
9:15 AM 50.0 °F - 48.2 °F 94% 30.04 in 6.2 mi North 4.6 mph - N/A   Scattered Clouds
9:45 AM 53.6 °F - 48.2 °F 82% 30.04 in 6.2 mi NNW 4.6 mph - N/A   Scattered Clouds
10:15 AM 55.4 °F - 50.0 °F 82% 30.04 in 6.2 mi NNW 4.6 mph - N/A   Scattered Clouds
10:45 AM 57.2 °F - 50.0 °F 77% 30.04 in 6.2 mi North 4.6 mph - N/A   Mostly Cloudy
11:15 AM 59.0 °F - 50.0 °F 72% 30.04 in 6.2 mi North 3.5 mph - N/A   Scattered Clouds
11:45 AM 59.0 °F - 51.8 °F 77% 30.04 in 6.2 mi North 3.5 mph - N/A   Scattered Clouds
12:15 PM 60.8 °F - 51.8 °F 72% 30.04 in 6.2 mi NNW 3.5 mph - N/A   Partly Cloudy
12:45 PM 62.6 °F - 51.8 °F 68% 30.04 in 6.2 mi NNW 3.5 mph - N/A   Partly Cloudy
1:15 PM 62.6 °F - 50.0 °F 63% 30.01 in 6.2 mi WNW 3.5 mph - N/A   Scattered Clouds
1:45 PM 64.4 °F - 50.0 °F 59% 30.01 in 6.2 mi NNW 2.3 mph - N/A   Partly Cloudy
2:15 PM 64.4 °F - 50.0 °F 59% 30.01 in 6.2 mi NW 4.6 mph - N/A   Partly Cloudy
2:45 PM 64.4 °F - 48.2 °F 56% 30.01 in 6.2 mi NNW 3.5 mph - N/A   Partly Cloudy
3:15 PM 62.6 °F - 48.2 °F 59% 30.01 in 6.2 mi NNW 4.6 mph - N/A   Partly Cloudy
3:45 PM 62.6 °F - 50.0 °F 63% 30.01 in 6.2 mi NNW 2.3 mph - N/A   Scattered Clouds
4:15 PM 62.6 °F - 48.2 °F 59% 30.01 in 6.2 mi NNW 2.3 mph - N/A   Scattered Clouds
4:45 PM 62.6 °F - 50.0 °F 63% 30.01 in 6.2 mi Calm Calm - N/A   Scattered Clouds
5:15 PM 59.0 °F - 48.2 °F 67% 30.01 in 6.2 mi Calm Calm - N/A   Scattered Clouds
5:45 PM 57.2 °F - 48.2 °F 72% 30.01 in 6.2 mi East 2.3 mph - N/A   Scattered Clouds
6:15 PM 53.6 °F - 50.0 °F 88% 30.01 in 6.2 mi ESE 3.5 mph - N/A   Scattered Clouds
6:45 PM 53.6 °F - 50.0 °F 88% 30.01 in 6.2 mi East 3.5 mph - N/A   Partly Cloudy
7:15 PM 53.6 °F - 50.0 °F 88% 30.01 in 6.2 mi NNE 1.2 mph - N/A   Partly Cloudy
7:45 PM 53.6 °F - 50.0 °F 88% 30.04 in 6.2 mi NNE 1.2 mph - N/A   Partly Cloudy
8:15 PM 53.6 °F - 50.0 °F 88% 30.04 in 6.2 mi East 1.2 mph - N/A   Partly Cloudy
8:45 PM 51.8 °F - 48.2 °F 88% 30.04 in 6.2 mi SSE 1.2 mph - N/A   Partly Cloudy
9:15 PM 51.8 °F - 48.2 °F 88% 30.04 in - NNW 2.3 mph - N/A   Clear
9:45 PM 51.8 °F - 48.2 °F 88% 30.04 in - NNE 2.3 mph - N/A   Clear
10:15 PM 50.0 °F - 48.2 °F 94% 30.04 in 6.2 mi NNE 1.2 mph - N/A   Partly Cloudy
10:45 PM 48.2 °F - 46.4 °F 93% 30.04 in 6.2 mi NE 2.3 mph - N/A   Partly Cloudy
11:15 PM 48.2 °F - 48.2 °F 100% 30.04 in 6.2 mi NNE 3.5 mph - N/A   Partly Cloudy
11:45 PM 50.0 °F - 48.2 °F 94% 30.04 in 6.2 mi NE 3.5 mph - N/A   Scattered Clouds